Tillbaka till svenska Fidonet
English   Information   Debug  
FILM   0/18
FNEWS_PUBLISH   4461
FN_SYSOP   41736
FN_SYSOP_OLD1   71952
FTP_FIDO   0/2
FTSC_PUBLIC   0/13627
FUNNY   0/4886
GENEALOGY.EUR   0/71
GET_INFO   105
GOLDED   0/408
HAM   0/16084
HOLYSMOKE   0/6791
HOT_SITES   0/1
HTMLEDIT   0/71
HUB203   466
HUB_100   264
HUB_400   39
HUMOR   0/29
IC   0/2851
INTERNET   0/424
INTERUSER   0/3
IP_CONNECT   719
JAMNNTPD   0/233
JAMTLAND   0/47
KATTY_KORNER   0/41
LAN   0/16
LINUX-USER   0/19
LINUXHELP   0/1155
LINUX   0/22120
LINUX_BBS   0/957
mail   18.68
mail_fore_ok   249
MENSA   0/341
MODERATOR   0/102
MONTE   0/992
MOSCOW_OKLAHOMA   0/1245
MUFFIN   0/783
MUSIC   0/321
N203_STAT   932
N203_SYSCHAT   313
NET203   321
NET204   69
NET_DEV   0/10
NORD.ADMIN   0/101
NORD.CHAT   0/2572
NORD.FIDONET   189
NORD.HARDWARE   0/28
NORD.KULTUR   0/114
NORD.PROG   0/32
NORD.SOFTWARE   0/88
NORD.TEKNIK   0/58
NORD   0/453
OCCULT_CHAT   0/93
OS2BBS   0/787
OS2DOSBBS   0/580
OS2HW   0/42
OS2INET   0/37
OS2LAN   0/134
OS2PROG   0/36
OS2REXX   0/113
OS2USER-L   207
OS2   0/4794
OSDEBATE   0/18996
PASCAL   0/490
PERL   0/457
PHP   0/45
POINTS   0/405
POLITICS   0/29554
POL_INC   0/14731
PSION   103
R20_ADMIN   1124
R20_AMATORRADIO   0/2
R20_BEST_OF_FIDONET   13
R20_CHAT   0/893
R20_DEPP   0/3
R20_DEV   399
R20_ECHO2   1379
R20_ECHOPRES   0/35
R20_ESTAT   0/719
R20_FIDONETPROG...
...RAM.MYPOINT
  0/2
R20_FIDONETPROGRAM   0/22
R20_FIDONET   0/248
R20_FILEFIND   0/24
R20_FILEFOUND   0/22
R20_HIFI   0/3
R20_INFO2   3268
R20_INTERNET   0/12940
R20_INTRESSE   0/60
R20_INTR_KOM   0/99
R20_KANDIDAT.CHAT   42
R20_KANDIDAT   28
R20_KOM_DEV   112
R20_KONTROLL   0/13318
R20_KORSET   0/18
R20_LOKALTRAFIK   0/24
R20_MODERATOR   0/1852
R20_NC   76
R20_NET200   245
R20_NETWORK.OTH...
...ERNETS
  0/13
R20_OPERATIVSYS...
...TEM.LINUX
  0/44
R20_PROGRAMVAROR   0/1
R20_REC2NEC   534
R20_SFOSM   0/341
R20_SF   0/108
R20_SPRAK.ENGLISH   0/1
R20_SQUISH   107
R20_TEST   2
R20_WORST_OF_FIDONET   12
RAR   0/9
RA_MULTI   106
RA_UTIL   0/162
REGCON.EUR   0/2056
REGCON   0/13
SCIENCE   0/1206
SF   0/239
SHAREWARE_SUPPORT   0/5146
SHAREWRE   0/14
SIMPSONS   0/169
STATS_OLD1   0/2539.065
STATS_OLD2   0/2530
STATS_OLD3   0/2395.095
STATS_OLD4   0/1692.25
SURVIVOR   0/495
SYSOPS_CORNER   0/3
SYSOP   0/84
TAGLINES   0/112
TEAMOS2   0/4530
TECH   0/2617
TEST.444   0/105
TRAPDOOR   0/19
TREK   0/755
TUB   0/290
UFO   0/40
UNIX   0/1316
USA_EURLINK   0/102
USR_MODEMS   0/1
VATICAN   0/2740
VIETNAM_VETS   0/14
VIRUS   0/378
VIRUS_INFO   0/201
VISUAL_BASIC   0/473
WHITEHOUSE   0/5187
WIN2000   0/101
WIN32   0/30
WIN95   0/4290
WIN95_OLD1   0/70272
WINDOWS   0/1517
WWB_SYSOP   0/419
WWB_TECH   0/810
ZCC-PUBLIC   0/1
ZEC   4

 
4DOS   0/134
ABORTION   0/7
ALASKA_CHAT   0/506
ALLFIX_FILE   0/1313
ALLFIX_FILE_OLD1   0/7997
ALT_DOS   0/152
AMATEUR_RADIO   0/1039
AMIGASALE   0/14
AMIGA   0/331
AMIGA_INT   0/1
AMIGA_PROG   0/20
AMIGA_SYSOP   0/26
ANIME   0/15
ARGUS   0/924
ASCII_ART   0/340
ASIAN_LINK   0/651
ASTRONOMY   0/417
AUDIO   0/92
AUTOMOBILE_RACING   0/105
BABYLON5   0/17862
BAG   135
BATPOWER   0/361
BBBS.ENGLISH   0/382
BBSLAW   0/109
BBS_ADS   0/5290
BBS_INTERNET   0/507
BIBLE   0/3563
BINKD   0/1119
BINKLEY   0/215
BLUEWAVE   0/2173
CABLE_MODEMS   0/25
CBM   0/46
CDRECORD   0/66
CDROM   0/20
CLASSIC_COMPUTER   0/378
COMICS   0/15
CONSPRCY   0/899
COOKING   33710
COOKING_OLD1   0/24719
COOKING_OLD2   0/40862
COOKING_OLD3   0/37489
COOKING_OLD4   0/35496
COOKING_OLD5   9370
C_ECHO   0/189
C_PLUSPLUS   0/31
DIRTY_DOZEN   0/201
DOORGAMES   0/2065
DOS_INTERNET   0/196
duplikat   6002
ECHOLIST   0/18295
EC_SUPPORT   0/318
ELECTRONICS   0/359
ELEKTRONIK.GER   1534
ENET.LINGUISTIC   0/13
ENET.POLITICS   0/4
ENET.SOFT   0/11701
ENET.SYSOP   33963
ENET.TALKS   0/32
ENGLISH_TUTOR   0/2000
EVOLUTION   0/1335
FDECHO   0/217
FDN_ANNOUNCE   0/7068
FIDONEWS   24191
FIDONEWS_OLD1   0/49742
FIDONEWS_OLD2   0/35949
FIDONEWS_OLD3   0/30874
FIDONEWS_OLD4   0/37224
FIDO_SYSOP   12852
FIDO_UTIL   0/180
FILEFIND   0/209
FILEGATE   0/212
Möte HAM, 16084 texter
 lista första sista föregående nästa
Text 3126, 816 rader
Skriven 2009-08-06 23:30:20 av Amsat List (1:323/120.0)
Ärende: [keps]  orb09218.amsa
=============================
[keps]  orb09218.amsa

Return-Path: <keps-bounces@amsat.org>
X-Rcpt: craig.healy@chowda.com
X-UIDL: 1249616241.30422

SB KEPS @ AMSAT  $ORB09218.O
Orbital Elements  09218.OSCAR

HR AMSAT ORBITAL ELEMENTS FOR OSCAR SATELLITES
FROM WA5QGD FORT WORTH,TX August 6, 2009
Send Subscribe/unsubscribe to KEPS at 
http://www.amsat.org/mailman/listinfo/keps
BID: ORB09218.O
TO ALL RADIO AMATEURS BT

Satellite: AO-07
Catalog number: 07530
Epoch time:      09218.52640616
Element set:     548
Inclination:      101.4244 deg
RA of node:       241.3519 deg
Eccentricity:    0.0011745
Arg of perigee:   168.9775 deg
Mean anomaly:     191.1560 deg
Mean motion:   12.53576053 rev/day
Decay rate:       -2.7e-07 rev/day^2
Epoch rev:           58902
Checksum:              296

Satellite: FO-29
Catalog number: 24278
Epoch time:      09218.06798528
Element set:    0106
Inclination:      098.5461 deg
RA of node:       085.3854 deg
Eccentricity:    0.0350097
Arg of perigee:   221.0245 deg
Mean anomaly:     136.4087 deg
Mean motion:   13.52944989 rev/day
Decay rate:       1.46e-06 rev/day^2
Epoch rev:           64049
Checksum:              339

Satellite: SO-33
Catalog number: 25509
Epoch time:      09217.82261861
Element set:    0515
Inclination:      031.4309 deg
RA of node:       131.8193 deg
Eccentricity:    0.0354033
Arg of perigee:   052.4708 deg
Mean anomaly:     310.7565 deg
Mean motion:   14.28260842 rev/day
Decay rate:       2.31e-06 rev/day^2
Epoch rev:           56293
Checksum:              286

Satellite: RS-22
Catalog number: 27939
Epoch time:      09217.70445482
Element set:    0859
Inclination:      097.9369 deg
RA of node:       090.7546 deg
Eccentricity:    0.0013201
Arg of perigee:   341.0019 deg
Mean anomaly:     019.0684 deg
Mean motion:   14.63332599 rev/day
Decay rate:       -1.7e-07 rev/day^2
Epoch rev:           31281
Checksum:              316

Satellite: VO-52
Catalog number: 28650
Epoch time:      09217.82335502
Element set:    0291
Inclination:      097.7389 deg
RA of node:       277.7560 deg
Eccentricity:    0.0026162
Arg of perigee:   226.0531 deg
Mean anomaly:     133.8482 deg
Mean motion:   14.81608083 rev/day
Decay rate:       1.43e-06 rev/day^2
Epoch rev:           22999
Checksum:              317

/EX
SB KEPS @ AMSAT  $ORB09218.D
Orbital Elements  09218.MICROS

HR AMSAT ORBITAL ELEMENTS FOR THE MICROSATS
FROM WA5QGD FORT WORTH,TX August 6, 2009
Send Subscribe/unsubscribe to KEPS at 
http://www.amsat.org/mailman/listinfo/keps
BID: ORB09218.D
TO ALL RADIO AMATEURS BT

Satellite: AO-16
Catalog number: 20439
Epoch time:      09217.95937409
Element set:    0670
Inclination:      098.2823 deg
RA of node:       184.1068 deg
Eccentricity:    0.0011565
Arg of perigee:   027.5310 deg
Mean anomaly:     332.6492 deg
Mean motion:   14.31829965 rev/day
Decay rate:       -6.0e-08 rev/day^2
Epoch rev:           02027
Checksum:              306

Satellite: LO-19
Catalog number: 20442
Epoch time:      09218.00820543
Element set:    0586
Inclination:      098.2452 deg
RA of node:       191.2235 deg
Eccentricity:    0.0012242
Arg of perigee:   023.9984 deg
Mean anomaly:     336.1784 deg
Mean motion:   14.32065018 rev/day
Decay rate:     -.00000000 rev/day^2
Epoch rev:           02044
Checksum:              258

Satellite: AO-27
Catalog number: 22825
Epoch time:      09217.98987590
Element set:    0308
Inclination:      098.4383 deg
RA of node:       169.8530 deg
Eccentricity:    0.0009228
Arg of perigee:   114.9844 deg
Mean anomaly:     245.2305 deg
Mean motion:   14.29270188 rev/day
Decay rate:       -5.2e-07 rev/day^2
Epoch rev:           82702
Checksum:              333

Satellite: IO-26
Catalog number: 22826
Epoch time:      09217.97130768
Element set:    0038
Inclination:      098.4332 deg
RA of node:       170.5626 deg
Eccentricity:    0.0009834
Arg of perigee:   110.7733 deg
Mean anomaly:     249.4507 deg
Mean motion:   14.29522652 rev/day
Decay rate:       -2.3e-07 rev/day^2
Epoch rev:           82712
Checksum:              307

Satellite: GO-32
Catalog number: 25397
Epoch time:      09217.70885507
Element set:    0959
Inclination:      098.3252 deg
RA of node:       237.3952 deg
Eccentricity:    0.0002231
Arg of perigee:   102.1928 deg
Mean anomaly:     257.9480 deg
Mean motion:   14.23161727 rev/day
Decay rate:       -5.9e-07 rev/day^2
Epoch rev:           57517
Checksum:              324

Satellite: NO-44
Catalog number: 26931
Epoch time:      09217.95770410
Element set:    0234
Inclination:      067.0536 deg
RA of node:       296.1218 deg
Eccentricity:    0.0006291
Arg of perigee:   276.0335 deg
Mean anomaly:     084.0053 deg
Mean motion:   14.29562034 rev/day
Decay rate:      -1.10e-06 rev/day^2
Epoch rev:           40969
Checksum:              287

Satellite: SO-50
Catalog number: 27607
Epoch time:      09217.52981322
Element set:     951
Inclination:      064.5562 deg
RA of node:       235.2288 deg
Eccentricity:    0.0062117
Arg of perigee:   193.7336 deg
Mean anomaly:     166.2096 deg
Mean motion:   14.71451608 rev/day
Decay rate:        7.1e-07 rev/day^2
Epoch rev:           35593
Checksum:              311

Satellite: CO-55
Catalog number: 27844
Epoch time:      09217.57503763
Element set:    0638
Inclination:      098.7128 deg
RA of node:       226.0425 deg
Eccentricity:    0.0010439
Arg of perigee:   006.4617 deg
Mean anomaly:     353.6698 deg
Mean motion:   14.20649405 rev/day
Decay rate:        2.0e-07 rev/day^2
Epoch rev:           31627
Checksum:              311

